This demonstration page uses our WeatherBlox Daily Observations layout. Learn more.

Left ArrowRight Arrow

Hourly Observations for August 17, 2021

Temp ( °F °C ) Dew Point ( °F °C ) Humidity (%) Winds ( mph kmh ) Pressure ( in mb ) Visibility ( mi km ) Precip ( " mm )
12:53 am 00:53 Cloudy with Haze 85 29.4 55 12.8 36 36 N 7 11 29.63 1004 2 2 0.00 0.00
1:50 am 01:50 Cloudy with Haze 81 27 55 13 42 42 N 6 9 29.64 1004 2 2 0.00 0.00
1:53 am 01:53 Cloudy with Haze 81 27.2 55 12.8 41 41 N 5 7 29.64 1004 2 2 0.00 0.00
2:53 am 02:53 Cloudy with Haze 77 25 55 12.8 47 47 Calm 29.65 1004 2 2 0.00 0.00
3:53 am 03:53 Cloudy with Haze 74 23.3 56 13.3 54 54 S 3 6 29.66 1004 2 3 0.00 0.00
4:53 am 04:53 Cloudy with Haze 75 23.9 53 11.7 46 46 Calm 29.67 1005 2 2 0.00 0.00
5:06 am 05:06 Cloudy with Haze 79 26.1 50 10 36 36 S 9 15 29.67 1005 2 3 0.00 0.00
5:27 am 05:27 Cloudy with Haze 79 26.1 51 10.6 38 38 SW 8 13 29.68 1005 2 3 0.00 0.00
5:53 am 05:53 Cloudy with Haze 78 25.6 51 10.6 39 39 WSW 3 6 29.68 1005 3 4 0.00 0.00
6:26 am 06:26 Cloudy with Haze 77 25 51 10.6 40 40 SSW 5 7 29.70 1006 4 6 0.00 0.00
6:53 am 06:53 Cloudy with Haze 72 22.2 52 11.1 50 50 S 6 9 29.70 1006 2 3 0.00 0.00
7:24 am 07:24 Cloudy with Haze 74 23.3 52 11.1 46 46 SSE 9 15 29.71 1006 5 8 0.00 0.00
7:53 am 07:53 Cloudy with Smoke 74 23.3 53 11.7 48 48 S 3 6 29.72 1006 7 11 0.00 0.00
8:53 am 08:53 Cloudy with Smoke 75 23.9 53 11.7 46 46 Calm 29.73 1007 10 16 0.00 0.00
9:53 am 09:53 Cloudy with Smoke 77 25 52 11.1 42 42 SE 3 6 29.73 1007 10 16 0.00 0.00
10:53 am 10:53 Cloudy with Smoke 79 26.1 52 11.1 39 39 VRB 3 6 29.74 1007 10 16 0.00 0.00
11:53 am 11:53 Cloudy with Haze 81 27.2 52 11.1 37 37 SW 3 6 29.72 1007 5 8 0.00 0.00
12:53 pm 12:53 Cloudy with Haze 83 28.3 52 11.1 34 34 Calm 29.71 1006 3 5 0.00 0.00
1:31 pm 13:31 Cloudy with Haze 88 31.1 52 11.1 29 29 Calm 29.68 1005 3 5 0.00 0.00
1:53 pm 13:53 Cloudy with Haze 89 31.7 52 11.1 28 28 E 5 7 29.68 1005 3 4 0.00 0.00
2:04 pm 14:04 Cloudy with Haze 89 31.7 51 10.6 27 27 Calm 29.67 1005 3 4 0.00 0.00
2:17 pm 14:17 Cloudy with Haze 89 31.7 51 10.6 27 27 Calm 29.66 1004 3 4 0.00 0.00
2:53 pm 14:53 Cloudy with Haze 92 33.3 52 11.1 26 26 S 8 13 29.66 1004 2 3 0.00 0.00
3:06 pm 15:06 Cloudy with Haze 91 32.8 52 11.1 26 26 SSW 6 9 29.65 1004 2 3 0.00 0.00
3:28 pm 15:28 Cloudy with Haze 92 33.3 54 12.2 28 28 SW 6 9 29.64 1004 2 3 0.00 0.00
3:53 pm 15:53 Cloudy with Haze 91 32.8 53 11.7 27 27 W 7 11 29.64 1004 2 3 0.00 0.00
4:53 pm 16:53 Cloudy with Haze 94 34.4 49 9.4 21 21 NW 3 6 29.62 1003 3 4 0.00 0.00
5:25 pm 17:25 Hazy 96 35.6 35 1.7 12 12 NNW 9 15 29.60 1002 6 10 0.00 0.00
5:53 pm 17:53 Sunny with Smoke 95 35 31 -0.6 10 10 N 17 28 29.62 1003 10 16 0.00 0.00
6:53 pm 18:53 Sunny with Smoke 92 33.3 28 -2.2 10 10 N 18 30 29.63 1003 10 16 0.00 0.00
7:53 pm 19:53 Cloudy with Smoke 89 31.7 27 -2.8 11 11 N 12 19 29.65 1004 10 16 0.00 0.00
8:53 pm 20:53 Cloudy with Smoke 86 30 28 -2.2 12 12 N 15 24 29.69 1005 10 16 0.00 0.00
9:53 pm 21:53 Cloudy with Smoke 83 28.3 26 -3.3 12 12 NNE 9 15 29.72 1007 10 16 0.00 0.00
10:53 pm 22:53 Clear with Smoke 81 27.2 26 -3.3 13 13 N 14 22 29.74 1007 10 16 0.00 0.00
11:53 pm 23:53 Mostly Cloudy with Smoke 78 25.6 26 -3.3 15 15 N 9 15 29.77 1008 10 16 0.00 0.00

Powered by AerisWeather